| time (UTC) | temp F | wind direction | speed MPH | gust MPH | rain 1hr in | rain 24hr in | rain mn in | humidity % | barometer mb |
| 20260831034525 | 52 | 108 | 4.0 | 7.0 | 0.00 | 0.21 | 0.20 | 47 | 1010.2 |
| 20260831033024 | 53 | 148 | 0.0 | 5.0 | 0.00 | 0.21 | 0.20 | 49 | 1010.0 |
| 20260831031530 | 54 | 148 | 4.0 | 7.0 | 0.00 | 0.21 | 0.20 | 44 | 1009.9 |
| 20260831030022 | 52 | 146 | 4.0 | 7.0 | 0.00 | 0.21 | 0.20 | 51 | 1009.8 |
| 20260831024524 | 51 | 271 | 2.0 | 9.0 | 0.00 | 0.21 | 0.20 | 60 | 1009.6 |
| 20260831023018 | 53 | 203 | 5.0 | 7.0 | 0.00 | 0.21 | 0.20 | 56 | 1009.0 |
| 20260831021517 | 54 | 206 | 5.0 | 7.0 | 0.00 | 0.21 | 0.20 | 56 | 1008.8 |
| 20260831020017 | 56 | 207 | 5.0 | 6.0 | 0.00 | 0.21 | 0.20 | 50 | 1008.6 |
| 20260831014517 | 59 | 207 | 4.0 | 6.0 | 0.00 | 0.21 | 0.20 | 46 | 1008.5 |
| 20260831013034 | 62 | 211 | 3.0 | 6.0 | 0.00 | 0.21 | 0.20 | 39 | 1008.6 |
| 20260831011519 | 65 | 225 | 3.0 | 6.0 | 0.00 | 0.21 | 0.20 | 38 | 1008.6 |
| 20260831010018 | 67 | 250 | 3.0 | 9.0 | 0.00 | 0.21 | 0.20 | 28 | 1008.6 |
| 20260831004515 | 68 | 258 | 3.0 | 11.0 | 0.00 | 0.21 | 0.20 | 27 | 1008.5 |
| 20260831003021 | 68 | 268 | 7.0 | 13.0 | 0.00 | 0.21 | 0.20 | 29 | 1008.6 |
| 20260831001521 | 68 | 239 | 5.0 | 15.0 | 0.00 | 0.21 | 0.20 | 27 | 1008.5 |
| 20260831000012 | 69 | 252 | 3.0 | 15.0 | 0.00 | 0.21 | 0.20 | 27 | 1008.4 |
| 20260830234511 | 69 | 246 | 8.0 | 14.0 | 0.00 | 0.21 | 0.20 | 28 | 1008.3 |
| 20260830233010 | 69 | 172 | 6.0 | 17.0 | 0.00 | 0.21 | 0.20 | 27 | 1008.3 |
| 20260830231626 | 70 | 290 | 8.0 | 14.0 | 0.00 | 0.21 | 0.20 | 30 | 1008.3 |
| 20260830230009 | 70 | 248 | 9.0 | 14.0 | 0.00 | 0.21 | 0.20 | 32 | 1008.2 |
| 20260830224514 | 69 | 243 | 9.0 | 15.0 | 0.00 | 0.21 | 0.20 | 32 | 1008.2 |
| 20260830223008 | 69 | 289 | 10.0 | 19.0 | 0.00 | 0.21 | 0.20 | 32 | 1008.4 |
| 20260830221515 | 69 | 267 | 7.0 | 14.0 | 0.00 | 0.21 | 0.20 | 31 | 1008.5 |
| 20260830220006 | 70 | 257 | 13.0 | 18.0 | 0.00 | 0.21 | 0.20 | 32 | 1008.6 |
| 20260830214509 | 69 | 267 | 6.0 | 14.0 | 0.00 | 0.21 | 0.20 | 34 | 1008.6 |
| 20260830213001 | 69 | 286 | 6.0 | 14.0 | 0.00 | 0.21 | 0.20 | 34 | 1008.7 |
| 20260830211501 | 69 | 250 | 12.0 | 19.0 | 0.00 | 0.21 | 0.20 | 34 | 1008.7 |
| 20260830210133 | 69 | 270 | 10.0 | 17.0 | 0.00 | 0.21 | 0.20 | 35 | 1008.9 |
| 20260830204609 | 68 | 258 | 5.0 | 19.0 | 0.00 | 0.21 | 0.20 | 35 | 1008.9 |
| 20260830203057 | 68 | 274 | 6.0 | 21.0 | 0.00 | 0.21 | 0.20 | 38 | 1009.0 |
| 20260830201557 | 67 | 258 | 3.0 | 9.0 | 0.00 | 0.21 | 0.20 | 39 | 1009.2 |
| 20260830200108 | 67 | 248 | 9.0 | 12.0 | 0.00 | 0.21 | 0.20 | 40 | 1009.3 |
| 20260830194613 | 66 | 205 | 5.0 | 15.0 | 0.00 | 0.22 | 0.20 | 42 | 1009.2 |
| 20260830193048 | 66 | 238 | 8.0 | 13.0 | 0.00 | 0.22 | 0.20 | 46 | 1009.2 |
| 20260830191544 | 65 | 285 | 6.0 | 10.0 | 0.00 | 0.22 | 0.20 | 54 | 1009.2 |
| 20260830190043 | 63 | 246 | 2.0 | 7.0 | 0.00 | 0.22 | 0.20 | 59 | 1009.3 |
| 20260830184542 | 64 | 186 | 3.0 | 11.0 | 0.00 | 0.22 | 0.20 | 61 | 1009.2 |
| 20260830183038 | 63 | 284 | 7.0 | 11.0 | 0.00 | 0.22 | 0.20 | 62 | 1009.1 |
| 20260830181538 | 62 | 268 | 1.0 | 6.0 | 0.00 | 0.22 | 0.20 | 64 | 1009.0 |
| 20260830180036 | 61 | 258 | 4.0 | 8.0 | 0.00 | 0.22 | 0.20 | 69 | 1008.9 |
| 20260830174536 | 61 | 228 | 2.0 | 5.0 | 0.00 | 0.30 | 0.20 | 71 | 1009.0 |
| 20260830173045 | 61 | 142 | 5.0 | 9.0 | 0.00 | 0.30 | 0.20 | 71 | 1009.0 |
| 20260830171529 | 60 | 115 | 3.0 | 8.0 | 0.00 | 0.30 | 0.20 | 75 | 1008.9 |
| 20260830170026 | 60 | 209 | 3.0 | 8.0 | 0.00 | 0.30 | 0.20 | 75 | 1009.0 |
| 20260830164524 | 59 | 63 | 3.0 | 6.0 | 0.00 | 0.56 | 0.20 | 81 | 1008.9 |
| 20260830163023 | 58 | 66 | 4.0 | 6.0 | 0.00 | 0.56 | 0.20 | 86 | 1009.0 |
| 20260830161519 | 56 | 91 | 4.0 | 8.0 | 0.00 | 0.56 | 0.20 | 89 | 1009.0 |
| 20260830160016 | 54 | 162 | 0.0 | 4.0 | 0.00 | 0.56 | 0.20 | 92 | 1009.2 |
| 20260830154510 | 53 | 162 | 1.0 | 3.0 | 0.11 | 0.56 | 0.20 | 90 | 1009.1 |
| 20260830153013 | 53 | 162 | 1.0 | 3.0 | 0.15 | 0.56 | 0.20 | 89 | 1008.8 |
| 20260830151506 | 53 | 161 | 2.0 | 8.0 | 0.15 | 0.56 | 0.20 | 89 | 1008.6 |
| 20260830150006 | 52 | 180 | 4.0 | 10.0 | 0.15 | 0.56 | 0.20 | 88 | 1008.5 |
| 20260830144506 | 52 | 225 | 5.0 | 13.0 | 0.03 | 0.45 | 0.08 | 88 | 1008.6 |
| 20260830143003 | 53 | 280 | 3.0 | 7.0 | 0.01 | 0.42 | 0.05 | 89 | 1008.3 |
| 20260830141506 | 52 | 165 | 2.0 | 7.0 | 0.01 | 0.42 | 0.05 | 88 | 1007.7 |
| 20260830140003 | 51 | 150 | 2.0 | 6.0 | 0.01 | 0.42 | 0.05 | 92 | 1007.6 |
| 20260830134506 | 51 | 152 | 2.0 | 3.0 | 0.01 | 0.42 | 0.05 | 92 | 1007.9 |
| 20260830133001 | 50 | 152 | 2.0 | 5.0 | 0.00 | 0.41 | 0.04 | 92 | 1008.0 |
| 20260830131627 | 50 | 147 | 1.0 | 3.0 | 0.00 | 0.41 | 0.04 | 91 | 1007.6 |
| 20260830130001 | 50 | 147 | 2.0 | 5.0 | 0.00 | 0.41 | 0.04 | 92 | 1007.5 |
| 20260830124600 | 50 | 136 | 1.0 | 3.0 | 0.00 | 0.41 | 0.04 | 92 | 1007.2 |
| 20260830123108 | 49 | 136 | 0.0 | 2.0 | 0.00 | 0.41 | 0.04 | 91 | 1007.1 |
| 20260830121558 | 49 | 136 | 1.0 | 4.0 | 0.00 | 0.41 | 0.04 | 91 | 1006.8 |
| 20260830120058 | 49 | 135 | 0.0 | 3.0 | 0.00 | 0.41 | 0.04 | 90 | 1006.7 |
| 20260830114601 | 50 | 135 | 0.0 | 2.0 | 0.00 | 0.41 | 0.04 | 88 | 1007.0 |
| 20260830113055 | 51 | 135 | 1.0 | 3.0 | 0.00 | 0.41 | 0.04 | 86 | 1007.0 |
| 20260830111555 | 51 | 124 | 3.0 | 6.0 | 0.00 | 0.41 | 0.04 | 87 | 1007.0 |
| 20260830110054 | 50 | 171 | 2.0 | 4.0 | 0.00 | 0.41 | 0.04 | 91 | 1007.0 |
| 20260830104604 | 49 | 171 | 0.0 | 3.0 | 0.00 | 0.41 | 0.04 | 90 | 1006.9 |
| 20260830103049 | 50 | 171 | 0.0 | 3.0 | 0.00 | 0.41 | 0.04 | 89 | 1006.9 |
| 20260830101546 | 50 | 171 | 2.0 | 4.0 | 0.00 | 0.41 | 0.04 | 88 | 1006.8 |
| 20260830100046 | 51 | 171 | 0.0 | 3.0 | 0.00 | 0.41 | 0.04 | 88 | 1006.7 |
| 20260830094545 | 52 | 171 | 0.0 | 3.0 | 0.00 | 0.41 | 0.04 | 87 | 1006.5 |
| 20260830093045 | 52 | 171 | 1.0 | 4.0 | 0.00 | 0.41 | 0.04 | 88 | 1006.7 |
| 20260830091547 | 52 | 207 | 0.0 | 5.0 | 0.00 | 0.41 | 0.04 | 88 | 1006.6 |
| 20260830090043 | 51 | 187 | 2.0 | 5.0 | 0.00 | 0.41 | 0.04 | 90 | 1006.5 |
| 20260830084542 | 51 | 154 | 2.0 | 3.0 | 0.00 | 0.41 | 0.04 | 90 | 1006.5 |
| 20260830083052 | 51 | 154 | 3.0 | 5.0 | 0.00 | 0.41 | 0.04 | 90 | 1006.6 |
| 20260830081539 | 51 | 154 | 1.0 | 2.0 | 0.00 | 0.41 | 0.04 | 89 | 1006.7 |
| 20260830080038 | 52 | 154 | 0.0 | 3.0 | 0.00 | 0.41 | 0.04 | 87 | 1006.7 |
| 20260830074547 | 52 | 142 | 2.0 | 4.0 | 0.00 | 0.41 | 0.04 | 86 | 1006.6 |
| 20260830073035 | 52 | 172 | 3.0 | 5.0 | 0.01 | 0.41 | 0.04 | 86 | 1006.6 |
| 20260830071536 | 53 | 168 | 4.0 | 10.0 | 0.04 | 0.41 | 0.04 | 85 | 1006.6 |
| 20260830070033 | 53 | 153 | 4.0 | 11.0 | 0.04 | 0.41 | 0.04 | 88 | 1006.7 |
| 20260830064535 | 53 | 95 | 7.0 | 13.0 | 0.04 | 0.41 | 0.04 | 88 | 1007.2 |
| 20260830063026 | 54 | 169 | 2.0 | 13.0 | 0.03 | 0.40 | 0.03 | 85 | 1008.5 |
| 20260830061527 | 54 | 250 | 2.0 | 5.0 | 0.00 | 0.37 | 0.00 | 85 | 1008.6 |
| 20260830060018 | 55 | 278 | 1.0 | 3.0 | 0.00 | 0.37 | 0.00 | 83 | 1007.0 |
| 20260830054617 | 55 | 278 | 2.0 | 5.0 | 0.00 | 0.37 | 0.37 | 81 | 1006.6 |
| 20260830053016 | 56 | 173 | 8.0 | 19.0 | 0.00 | 0.37 | 0.37 | 80 | 1005.8 |
| 20260830051515 | 56 | 193 | 8.0 | 17.0 | 0.00 | 0.37 | 0.37 | 79 | 1005.8 |
| 20260830050016 | 55 | 150 | 7.0 | 13.0 | 0.00 | 0.37 | 0.37 | 78 | 1005.9 |
| 20260830044512 | 54 | 126 | 5.0 | 13.0 | 0.00 | 0.37 | 0.37 | 81 | 1005.8 |
| 20260830043010 | 54 | 87 | 4.0 | 10.0 | 0.01 | 0.37 | 0.37 | 83 | 1006.1 |
| 20260830041509 | 54 | 119 | 5.0 | 8.0 | 0.01 | 0.37 | 0.37 | 82 | 1006.2 |
| 20260830040016 | 55 | 91 | 5.0 | 12.0 | 0.01 | 0.37 | 0.37 | 81 | 1006.6 |